Time,TemperatureF,DewpointF,PressureIn,WindDirection,WindDirectionDegrees,WindSpeedMPH,WindSpeedGustMPH,Humidity,HourlyPrecipIn,Conditions,Clouds,dailyrainin,SoftwareType,DateUTC
2013-03-21 00:02:00,4.0,-9.0,-100.00,WNW,285,1.0,2.0,55,-99.99,,,-99.99,,2013-03-21 05:02:00,
2013-03-21 00:12:00,2.0,-9.0,-100.00,West,275,1.0,2.0,61,-99.99,,,-99.99,,2013-03-21 05:12:00,
2013-03-21 00:33:00,2.0,-9.0,-100.00,West,275,1.0,2.0,61,-99.99,,,-99.99,,2013-03-21 05:33:00,
2013-03-21 00:44:00,2.0,-9.0,-100.00,West,275,1.0,2.0,61,-99.99,,,-99.99,,2013-03-21 05:44:00,
2013-03-21 00:52:00,2.0,-9.0,-100.00,West,275,1.0,2.0,61,-99.99,,,-99.99,,2013-03-21 05:52:00,
2013-03-21 01:03:00,2.0,-9.0,-100.00,West,275,1.0,2.0,61,-99.99,,,-99.99,,2013-03-21 06:03:00,
2013-03-21 01:32:00,4.0,-5.0,-100.00,WNW,295,2.0,6.0,68,-99.99,,,-99.99,,2013-03-21 06:32:00,
2013-03-21 01:42:00,4.0,-5.0,-100.00,WNW,295,2.0,6.0,68,-99.99,,,-99.99,,2013-03-21 06:42:00,
2013-03-21 01:52:00,4.0,-5.0,-100.00,WNW,295,2.0,6.0,68,-99.99,,,-99.99,,2013-03-21 06:52:00,
2013-03-21 02:02:00,4.0,-5.0,-100.00,WNW,295,2.0,6.0,68,-99.99,,,-99.99,,2013-03-21 07:02:00,
2013-03-21 02:12:00,4.0,-5.0,-100.00,WNW,295,2.0,6.0,68,-99.99,,,-99.99,,2013-03-21 07:12:00,
2013-03-21 02:13:00,4.0,-3.0,-100.00,WNW,295,2.0,6.0,72,-99.99,,,-99.99,,2013-03-21 07:13:00,
2013-03-21 02:32:00,4.0,-3.0,-100.00,WNW,295,2.0,6.0,72,-99.99,,,-99.99,,2013-03-21 07:32:00,
2013-03-21 02:43:00,4.0,-3.0,-100.00,WNW,295,2.0,6.0,72,-99.99,,,-99.99,,2013-03-21 07:43:00,
2013-03-21 02:52:00,4.0,-3.0,-100.00,WNW,295,2.0,6.0,72,-99.99,,,-99.99,,2013-03-21 07:52:00,
2013-03-21 03:02:00,4.0,-3.0,-100.00,WNW,295,2.0,6.0,72,-99.99,,,-99.99,,2013-03-21 08:02:00,
2013-03-21 03:33:00,7.0,0.0,-100.00,NW,305,4.0,7.0,73,-99.99,,,-99.99,,2013-03-21 08:33:00,
2013-03-21 03:43:00,7.0,0.0,-100.00,NW,305,4.0,7.0,73,-99.99,,,-99.99,,2013-03-21 08:43:00,
2013-03-21 03:52:00,7.0,0.0,-100.00,NW,305,4.0,7.0,73,-99.99,,,-99.99,,2013-03-21 08:52:00,
2013-03-21 04:02:00,7.0,0.0,-100.00,NW,305,4.0,7.0,73,-99.99,,,-99.99,,2013-03-21 09:02:00,
2013-03-21 04:11:00,7.0,0.0,-100.00,NW,305,4.0,7.0,73,-99.99,,,-99.99,,2013-03-21 09:11:00,
2013-03-21 04:12:00,7.0,0.0,-100.00,NW,325,5.0,11.0,71,-99.99,,,-99.99,,2013-03-21 09:12:00,
2013-03-21 04:33:00,7.0,0.0,-100.00,NW,325,5.0,11.0,71,-99.99,,,-99.99,,2013-03-21 09:33:00,
2013-03-21 04:43:00,7.0,0.0,-100.00,NW,325,5.0,11.0,71,-99.99,,,-99.99,,2013-03-21 09:43:00,
2013-03-21 04:53:00,7.0,0.0,-100.00,NW,325,5.0,11.0,71,-99.99,,,-99.99,,2013-03-21 09:53:00,
2013-03-21 05:03:00,7.0,0.0,-100.00,NW,325,5.0,11.0,71,-99.99,,,-99.99,,2013-03-21 10:03:00,
2013-03-21 05:12:00,7.0,-1.0,-100.00,NW,305,4.0,7.0,71,-99.99,,,-99.99,,2013-03-21 10:12:00,
2013-03-21 05:34:00,7.0,-1.0,-100.00,NW,305,4.0,7.0,71,-99.99,,,-99.99,,2013-03-21 10:34:00,
2013-03-21 05:43:00,7.0,-1.0,-100.00,NW,305,4.0,7.0,71,-99.99,,,-99.99,,2013-03-21 10:43:00,
2013-03-21 05:53:00,7.0,-1.0,-100.00,NW,305,4.0,7.0,71,-99.99,,,-99.99,,2013-03-21 10:53:00,
2013-03-21 06:03:00,7.0,-1.0,-100.00,NW,305,4.0,7.0,71,-99.99,,,-99.99,,2013-03-21 11:03:00,
2013-03-21 06:33:00,6.0,-1.0,-100.00,NW,315,1.0,4.0,72,-99.99,,,-99.99,,2013-03-21 11:33:00,
2013-03-21 06:43:00,6.0,-1.0,-100.00,NW,315,1.0,4.0,72,-99.99,,,-99.99,,2013-03-21 11:43:00,
2013-03-21 06:53:00,6.0,-1.0,-100.00,NW,315,1.0,4.0,72,-99.99,,,-99.99,,2013-03-21 11:53:00,
2013-03-21 07:02:00,6.0,-1.0,-100.00,NW,315,1.0,4.0,72,-99.99,,,-99.99,,2013-03-21 12:02:00,
2013-03-21 07:12:00,6.0,-1.0,-100.00,NW,315,1.0,4.0,72,-99.99,,,-99.99,,2013-03-21 12:12:00,
2013-03-21 07:33:00,7.0,0.0,-100.00,NNW,330,5.0,11.0,73,-99.99,,,-99.99,,2013-03-21 12:33:00,
2013-03-21 07:43:00,7.0,0.0,-100.00,NNW,330,5.0,11.0,73,-99.99,,,-99.99,,2013-03-21 12:43:00,
2013-03-21 07:53:00,7.0,0.0,-100.00,NNW,330,5.0,11.0,73,-99.99,,,-99.99,,2013-03-21 12:53:00,
2013-03-21 08:02:00,7.0,0.0,-100.00,NNW,330,5.0,11.0,73,-99.99,,,-99.99,,2013-03-21 13:02:00,
2013-03-21 08:32:00,9.0,2.0,-100.00,NW,305,4.0,9.0,71,-99.99,,,-99.99,,2013-03-21 13:32:00,
2013-03-21 08:42:00,9.0,2.0,-100.00,NW,305,4.0,9.0,71,-99.99,,,-99.99,,2013-03-21 13:42:00,
2013-03-21 08:52:00,9.0,2.0,-100.00,NW,305,4.0,9.0,71,-99.99,,,-99.99,,2013-03-21 13:52:00,
2013-03-21 09:02:00,9.0,2.0,-100.00,NW,305,4.0,9.0,71,-99.99,,,-99.99,,2013-03-21 14:02:00,
2013-03-21 09:12:00,9.0,2.0,-100.00,NW,305,4.0,9.0,71,-99.99,,,-99.99,,2013-03-21 14:12:00,
2013-03-21 09:32:00,12.0,2.0,-100.00,NNW,340,6.0,14.0,64,-99.99,,,-99.99,,2013-03-21 14:32:00,
2013-03-21 09:43:00,12.0,2.0,-100.00,NNW,340,6.0,14.0,64,-99.99,,,-99.99,,2013-03-21 14:43:00,
2013-03-21 09:52:00,12.0,2.0,-100.00,NNW,340,6.0,14.0,64,-99.99,,,-99.99,,2013-03-21 14:52:00,
2013-03-21 10:03:00,12.0,2.0,-100.00,NNW,340,6.0,14.0,64,-99.99,,,-99.99,,2013-03-21 15:03:00,
2013-03-21 10:12:00,12.0,2.0,-100.00,NNW,340,6.0,14.0,64,-99.99,,,-99.99,,2013-03-21 15:12:00,
2013-03-21 10:33:00,18.0,4.0,-100.00,WNW,295,6.0,11.0,53,-99.99,,,-99.99,,2013-03-21 15:33:00,
2013-03-21 10:43:00,18.0,4.0,-100.00,WNW,295,6.0,11.0,53,-99.99,,,-99.99,,2013-03-21 15:43:00,
2013-03-21 10:53:00,18.0,4.0,-100.00,WNW,295,6.0,11.0,53,-99.99,,,-99.99,,2013-03-21 15:53:00,
2013-03-21 11:03:00,18.0,4.0,-100.00,WNW,295,6.0,11.0,53,-99.99,,,-99.99,,2013-03-21 16:03:00,
2013-03-21 12:33:00,22.0,5.0,-100.00,NNW,345,10.0,16.0,47,-99.99,,,-99.99,,2013-03-21 17:33:00,
2013-03-21 12:43:00,22.0,5.0,-100.00,NNW,345,10.0,16.0,47,-99.99,,,-99.99,,2013-03-21 17:43:00,
2013-03-21 12:53:00,22.0,5.0,-100.00,NNW,345,10.0,16.0,47,-99.99,,,-99.99,,2013-03-21 17:53:00,
2013-03-21 13:02:00,22.0,5.0,-100.00,NNW,345,10.0,16.0,47,-99.99,,,-99.99,,2013-03-21 18:02:00,
2013-03-21 13:12:00,22.0,5.0,-100.00,NNW,345,10.0,16.0,47,-99.99,,,-99.99,,2013-03-21 18:12:00,
2013-03-21 14:32:00,30.0,5.0,-100.00,NW,310,4.0,12.0,35,-99.99,,,-99.99,,2013-03-21 19:32:00,
2013-03-21 14:53:00,30.0,5.0,-100.00,NW,310,4.0,12.0,35,-99.99,,,-99.99,,2013-03-21 19:53:00,
2013-03-21 15:02:00,30.0,5.0,-100.00,NW,310,4.0,12.0,35,-99.99,,,-99.99,,2013-03-21 20:02:00,
2013-03-21 15:12:00,30.0,5.0,-100.00,NW,310,4.0,12.0,35,-99.99,,,-99.99,,2013-03-21 20:12:00,
2013-03-21 15:33:00,29.0,2.0,-100.00,West,275,3.0,15.0,32,-99.99,,,-99.99,,2013-03-21 20:33:00,
2013-03-21 15:42:00,29.0,2.0,-100.00,West,275,3.0,15.0,32,-99.99,,,-99.99,,2013-03-21 20:42:00,
2013-03-21 15:53:00,29.0,2.0,-100.00,West,275,3.0,15.0,32,-99.99,,,-99.99,,2013-03-21 20:53:00,
2013-03-21 16:02:00,29.0,2.0,-100.00,West,275,3.0,15.0,32,-99.99,,,-99.99,,2013-03-21 21:02:00,
2013-03-21 16:12:00,29.0,2.0,-100.00,West,275,3.0,15.0,32,-99.99,,,-99.99,,2013-03-21 21:12:00,
2013-03-21 17:34:00,29.0,3.0,-100.00,NW,310,6.0,15.0,32,-99.99,,,-99.99,,2013-03-21 22:34:00,
2013-03-21 17:43:00,29.0,3.0,-100.00,NW,310,6.0,15.0,32,-99.99,,,-99.99,,2013-03-21 22:43:00,
2013-03-21 17:53:00,29.0,3.0,-100.00,NW,310,6.0,15.0,32,-99.99,,,-99.99,,2013-03-21 22:53:00,
2013-03-21 18:02:00,29.0,3.0,-100.00,NW,310,6.0,15.0,32,-99.99,,,-99.99,,2013-03-21 23:02:00,
2013-03-21 18:12:00,29.0,3.0,-100.00,NW,310,6.0,15.0,32,-99.99,,,-99.99,,2013-03-21 23:12:00,
2013-03-21 18:33:00,29.0,4.0,-100.00,NW,315,6.0,11.0,34,-99.99,,,-99.99,,2013-03-21 23:33:00,
2013-03-21 18:43:00,29.0,4.0,-100.00,NW,315,6.0,11.0,34,-99.99,,,-99.99,,2013-03-21 23:43:00,
2013-03-21 18:53:00,29.0,4.0,-100.00,NW,315,6.0,11.0,34,-99.99,,,-99.99,,2013-03-21 23:53:00,
2013-03-21 19:02:00,29.0,4.0,-100.00,NW,315,6.0,11.0,34,-99.99,,,-99.99,,2013-03-22 00:02:00,
2013-03-21 19:12:00,29.0,4.0,-100.00,NW,315,6.0,11.0,34,-99.99,,,-99.99,,2013-03-22 00:12:00,
2013-03-21 19:32:00,25.0,2.0,-100.00,NNW,335,6.0,10.0,38,-99.99,,,-99.99,,2013-03-22 00:32:00,
2013-03-21 19:42:00,25.0,2.0,-100.00,NNW,335,6.0,10.0,38,-99.99,,,-99.99,,2013-03-22 00:42:00,
2013-03-21 19:52:00,25.0,2.0,-100.00,NNW,335,6.0,10.0,38,-99.99,,,-99.99,,2013-03-22 00:52:00,
2013-03-21 20:02:00,25.0,2.0,-100.00,NNW,335,6.0,10.0,38,-99.99,,,-99.99,,2013-03-22 01:02:00,
2013-03-21 20:12:00,25.0,2.0,-100.00,NNW,335,6.0,10.0,38,-99.99,,,-99.99,,2013-03-22 01:12:00,
2013-03-21 20:33:00,20.0,2.0,-100.00,NW,315,1.0,2.0,45,-99.99,,,-99.99,,2013-03-22 01:33:00,
2013-03-21 20:43:00,20.0,2.0,-100.00,NW,315,1.0,2.0,45,-99.99,,,-99.99,,2013-03-22 01:43:00,
2013-03-21 20:53:00,20.0,2.0,-100.00,NW,315,1.0,2.0,45,-99.99,,,-99.99,,2013-03-22 01:53:00,
2013-03-21 21:02:00,20.0,2.0,-100.00,NW,315,1.0,2.0,45,-99.99,,,-99.99,,2013-03-22 02:02:00,
2013-03-21 21:12:00,20.0,2.0,-100.00,NW,315,1.0,2.0,45,-99.99,,,-99.99,,2013-03-22 02:12:00,
2013-03-21 21:32:00,15.0,2.0,-100.00,West,270,1.0,1.0,55,-99.99,,,-99.99,,2013-03-22 02:32:00,
2013-03-21 21:43:00,15.0,2.0,-100.00,West,270,1.0,1.0,55,-99.99,,,-99.99,,2013-03-22 02:43:00,
2013-03-21 21:53:00,15.0,2.0,-100.00,West,270,1.0,1.0,55,-99.99,,,-99.99,,2013-03-22 02:53:00,
2013-03-21 22:02:00,15.0,2.0,-100.00,West,270,1.0,1.0,55,-99.99,,,-99.99,,2013-03-22 03:02:00,
2013-03-21 22:12:00,15.0,2.0,-100.00,West,270,1.0,1.0,55,-99.99,,,-99.99,,2013-03-22 03:12:00,
2013-03-21 22:33:00,12.0,2.0,-100.00,WNW,285,0.0,2.0,64,-99.99,,,-99.99,,2013-03-22 03:33:00,
2013-03-21 22:43:00,12.0,2.0,-100.00,WNW,285,0.0,2.0,64,-99.99,,,-99.99,,2013-03-22 03:43:00,
2013-03-21 22:53:00,12.0,2.0,-100.00,WNW,285,0.0,2.0,64,-99.99,,,-99.99,,2013-03-22 03:53:00,
2013-03-21 23:03:00,12.0,2.0,-100.00,WNW,285,0.0,2.0,64,-99.99,,,-99.99,,2013-03-22 04:03:00,
2013-03-21 23:12:00,12.0,2.0,-100.00,WNW,285,0.0,2.0,64,-99.99,,,-99.99,,2013-03-22 04:12:00,
2013-03-21 23:32:00,13.0,4.0,-100.00,WNW,295,2.0,4.0,70,-99.99,,,-99.99,,2013-03-22 04:32:00,
2013-03-21 23:43:00,13.0,4.0,-100.00,WNW,295,2.0,4.0,70,-99.99,,,-99.99,,2013-03-22 04:43:00,
2013-03-21 23:52:00,13.0,4.0,-100.00,WNW,295,2.0,4.0,70,-99.99,,,-99.99,,2013-03-22 04:52:00,